STARLINK-11343, 62017

Orbit data source: Space-Track

STARLINK-11343, 62017 is a payload satellite owned by SpaceX/Seattle (US) in LEO that was launched on Mon, 18 Nov 2024 UTC via an FALCON 9 launch vehicle from the Air Force Western Test Range (AFWTR). Payload-class satellites include a variety of spacecraft equipped with specific instruments for various scientific and technological missions. These include communications satellites like Starlink; space stations such as the ISS; scientific satellites like the Hubble; Earth observation satellites from companies like Planet Labs, Umbra, and HawkEye 360; GPS; miniature CubeSats for education and research; and military/defense satellites.

Loading next visibility...
Identifier
62017, 2024-213K
Orbit
LEO
Last TLE update
1 day ago
Origin
Manufacturer
SpaceX/Seattle
Mission
Operational Commercial Communications
Bus & Motor
STARLINK V2M, Unknown motor
Mass
730 kg wet, ~700 kg dry
Launch date (UTC)
2024-11-18 (6 months ago)
Launch vehicle
FALCON 9
Launch site
Air Force Western Test Range (AFWTR)
Object type
Payload
Rocket body
Debris
Shape & HBR
Box + 2 Pan, 29 m
Radar Cross Section
36.964 m², Large (>1 m²)

Expand to show TLE details & history

TLE from 1 day ago
0 STARLINK-11343
1 62017U 24213K   25128.20418986  .00000822  00000-0  11649-4 0  9991
2 62017  53.1580 107.3142 0001273  83.7577 276.3586 15.69707013 26934
Epoch: 2025-05-08T04:54Z
Definitive object data (Epoch: 2025-05-08T04:54:02.003Z)
Latitude
-0.00003°
Longitude
167.52779°
Altitude
360.555 km
Speed
7.694 km/s
True Right ascension
07h 09m 15s
True Declination
0° 00' 00"
Sunlit
Object was in daylight at TLE epoch
Visualization TLE readout
Latitude
19.09003°
Longitude
-32.88784°
Altitude
359.821 km
Speed
7.696 km/s
Apparent Right ascension
21h 05m 18s
Apparent Declination
-29° 07' 14"
Sunlit
Object is in full shadow
Visualization observer readout
Local Sidereal Time
15:41:20
Azimuth
118.118° SE
Elevation
-11.965°
Doppler factor
1
Orbital elements
Apogee altitude
360.854 km
Perigee altitude
359.139 km
Semi-major axis
6,738.133 km
Eccentricity
0.0001273
Inclination
53.158°
RAAN
107.3142°
Arg. of periapsis
83.7577°
True anomaly
276.3441°
Mean anomaly
276.3586°
Eccentric anomaly
276.35135°
Mean motion
3.92404 °/min
BSTAR
0.000011649
Orbital period
91.74 mins
Loading maneuver chart data...
Loading SW <> Apogee altitude chart data...
Loading historical data...
Loading historical data...
Loading historical data...
Loading historical data...
Loading historical data...
Loading historical data...
Loading historical data...

STARLINK-11343 Visibility forecast

Observer location: undefined°, undefined°

Span
Click to sort rows by Start time (UTC) header in descending order
Start Az.
Max El. time (UTC)
Max El. Az.
Max El.
End time (UTC)
End Az.
4 mins2025-05-10 01:26:20.063Z271.28° WNW2025-05-10 01:27:20.063Z307.758° NW31.389°2025-05-10 01:30:20.063Z36.127° NE
|